Regional Weather Roundup
Issued by NWS Cleveland, OH

Home | Current Version | Previous Version | Graphics & Text | Print | Product List | Glossary On
Versions: 1 2 3 4 5 6 7 8 9 10 11 12 13 14 15 16 17 18 19 20 21 22 23 24 25 26 27 28 29 30 31 32 33 34 35 36 37 38 39 40 41 42 43 44 45 46 47 48 49 50
000
ASUS41 KCLE 260902
RWRCLE
OHIO REGIONAL WEATHER ROUNDUP
NATIONAL WEATHER SERVICE CLEVELAND, OH
500 AM EDT SUN APR 26 2015

NOTE: "FAIR" INDICATES FEW OR NO CLOUDS BELOW 12,000 FEET WITH NO
SIGNIFICANT WEATHER AND/OR OBSTRUCTIONS TO VISIBILITY.

OHZ001>008-015>018-024>027-034-035-043-044-261000-
   NORTHWEST OHIO

CITY           SKY/WX    TMP DP  RH WIND       PRES   REMARKS
DEFIANCE       CLEAR     36  27  69 N8        29.84R
FINDLAY        CLEAR     39  32  76 N12       29.79R
TOLEDO EXPRESS CLEAR     35  26  69 N6        29.83R
TOLEDO EXEC    CLEAR     41  30  65 N12       29.83R
LIMA           PTCLDY    38  31  76 N13       29.78S
$$

OHZ009>014-019>023-028>033-038-089-261000-
   NORTHEAST OHIO

CITY           SKY/WX    TMP DP  RH WIND       PRES   REMARKS
CLE-HOPKINS    CLEAR     36  32  85 N6        29.80S
CLE-LAKEFRONT  CLEAR     40  32  73 E7        29.78R
CUY CO. ARPT   NOT AVBL
LORAIN-ELYRIA  CLEAR     35  32  88 N7        29.79R WCI  29
ASHTABULA      CLEAR     34  28  79 CALM      29.78S
AKRON-CANTON   CLEAR     38  26  62 NE10      29.73S
WOOSTER        CLEAR     38  28  67 N10       29.74S
MANSFIELD      CLEAR     36  29  75 N9        29.75R
YOUNGSTOWN     PTCLDY    35  26  69 NE8       29.73S WCI  29
$$

OHZ042-051>053-060>062-070>072-077>081-261000-
  SOUTHWEST OHIO

CITY           SKY/WX    TMP DP  RH WIND       PRES   REMARKS
CINC-COVINGTON CLOUDY    43  35  73 N14       29.73R
CINC-LUNKEN    CLOUDY    44  32  62 N10       29.76R
HAMILTON       CLOUDY    43  32  65 N7        29.76R
DAYTON         CLOUDY    42  32  67 N15       29.76R
WRIGHT-PAT AFB CLOUDY    42  31  64 N12       29.74R
DAYTON GENERAL CLOUDY    41  30  65 N13       29.73R
WILMINGTON     MOCLDY    38  31  76 N9        29.72R
$$

OHZ036-037-039>041-045>050-054>059-063>069-073>076-082>088-261000-
  CENTRAL AND SOUTHEAST OHIO

CITY           SKY/WX    TMP DP  RH WIND       PRES   REMARKS
COLUMBUS       CLOUDY    41  32  70 N8        29.72R
OSU AIRPORT    CLOUDY    40  32  73 N10       29.73R
BOLTON FIELD   NOT AVBL
RICKENBACK AFB NOT AVBL
NEWARK         MOCLDY    42  29  59 VRB7      29.71R
MARION         PTCLDY    36  31  82 N12       29.76R
LANCASTER      CLOUDY    42  32  67 N8        29.71R
ZANESVILLE     MOCLDY    41  30  65 N3        29.69R
NEW PHILLY     PTCLDY    42  28  57 N5        29.72R
$$



USA.gov is the U.S. government's official web portal to all federal, state and local government web resources and services.